Погода в Боровлянке

Россия / Курганская область     56°14′31″N   65°28′01″E
темп.,
°C
ветер,
м/с
пор.,
м/с
влажн.,
%
обл.,
%
осадки,
мм/ч
давл.,
гПа
погр.,
м
10 августа, ср
ср1023:00+18с117912 0.0 101811
02:00+18ссз347293 0.0 101773
05:00+17ссз36805 0.0 1018104
08:00+21с477013 0.0 1018312
11:00+26ссв355316 0.0 1018935
14:00+29ссв443823 0.0 10172597
17:00+28ссв34385 0.0 10172172
20:00+19св377896 0.6 1018154
11 августа, чт
чт1123:00+19ссз117832 0.6 101712
02:00+17с119052 0.8 101711
05:00+16с22945 0.8 101723
08:00+20в11815 0.0 1018174
11:00+27юв11525 0.0 1017911
14:00+30св024090 0.0 10162451
17:00+24в116087 0.0 101622
20:00+22ююв2268100 0.0 101526
12 августа, пт
пт1223:00+18с259097 0.1 1015124
02:00+17юз2395100 1.0 101574
05:00+17зсз3798100 2.3 1015388
08:00+15зсз4988100 0.1 1016493
11:00+19зсз58576 0.1 10151182
14:00+21зсз6104773 0.0 10142056
17:00+20зсз5105599 0.0 10141798
20:00+17з386597 0.0 1014180
13 августа, сб
сб1323:00+15з4116813 0.0 1014278
02:00+14зюз3117397 0.0 1013228
05:00+16з4117093 0.0 1012352
08:00+18з511665 0.0 1012496
11:00+23з7125399 0.0 10101407
14:00+23зсз6115089 0.2 10102154
17:00+21сз613519 0.2 10111817
20:00+19ссз4105194 0.0 1012887
14 августа, вс
вс1423:00+15ссз511630 0.0 1015813
02:00+12зсз411790 0.0 1015351
05:00+10зсз411801 0.0 1016294
08:00+14сз59640 0.0 1017541
11:00+18сз69450 0.0 10171592
14:00+20сз6103839 0.0 10172340
17:00+18с694542 0.0 10181720
20:00+13ссз39612 0.0 1019339